Powrót do katalogu

IRIDIUM 33 DEB

AktywnyPO
NORAD 35616·DEBRIS·🇺🇸 United States

Wystrzelony Sep 14, 1997 z Baikonur Cosmodrome

Loading…

Następne Przeloty (najbliższe 24 godziny)

TLE

ŚwieżeSource: Space-Track

Epoka: Sep 14, 2026, 07:35 UTC

1 35616U 97051QN  26257.31648289  .00009403  00000-0  10041-2 0  9990
2 35616  86.3526 219.1366 0004887 312.2310  47.8500 14.88699812916668

Śledź IRIDIUM 33 DEB w czasie rzeczywistym z AllMySat

Download on the App Store